Weather History for KFNB - March, 2012

Change the Weather History Date:

Wednesday, March 21, 2012

  Actual Average Record
Temperature  
Mean Temperature 58 °F -  
Max Temperature 63 °F 55 °F 80 °F (2011)
Min Temperature 54 °F 30 °F 6 °F (1951)
Degree Days  
Heating Degree Days 6    
Growing Degree Days 8 (Base 50)    
Moisture  
Dew Point 57 °F    
Average Humidity 91    
Maximum Humidity 100    
Minimum Humidity 82    
Precipitation  
Precipitation 0.39 in - - ()
Sea Level Pressure  
Sea Level Pressure 29.85 in    
Wind  
Wind Speed 8 mph (East)    
Max Wind Speed 25 mph    
Max Gust Speed 32 mph    
Visibility 7 miles    
Events Rain    
Averages and records for this station are not official NWS values.
T = Trace of Precipitation, MM = Missing Value Source: NWS Daily Summary

Daily Weather History Graph

Daily Weather History Graph

Search for Another Location

Airport or City:

Trip Planner

Search our weather history database for the weather conditions in past years. The results will help you decide how hot, cold, wet, or windy it might be!

Date:

Astronomy

Mar. 21, 2012 Rise Set
Actual Time 7:23 AM CDT 7:36 PM CDT
Civil Twilight 6:56 AM CDT 8:03 PM CDT
Nautical Twilight 6:24 AM CDT 8:34 PM CDT
Astronomical Twilight 5:52 AM CDT 9:07 PM CDT
Moon 6:34 AM CDT (3/21) 7:03 PM CDT (3/21)
Length of Visible Light 13h 06m
Length of Day
12h 12m
Waning Crescent, 1% of the Moon is Illuminated
Mar 21
Waning Crescent
Mar 22
New
Mar 30
First Quarter
Apr 6
Full
Apr 13
Last Quarter

Hourly Weather History & Observations

Time (CDT) Temp. Dew Point Humidity Pressure Visibility Wind Dir Wind Speed Gust Speed Precip Events Conditions
12:53 AM 55.9 °F 55.0 °F 97% 29.85 in 5.0 mi ESE 5.8 mph - N/A   Overcast
1:53 AM 55.9 °F 55.0 °F 97% 29.87 in 5.0 mi ESE 5.8 mph - N/A   Overcast
2:26 AM 55.4 °F 55.4 °F 100% 29.85 in 6.0 mi East 4.6 mph - N/A   Overcast
2:48 AM 55.4 °F 55.4 °F 100% 29.85 in 7.0 mi SE 3.5 mph - N/A   Overcast
2:53 AM 55.9 °F 55.0 °F 97% 29.85 in 8.0 mi SE 3.5 mph - N/A   Overcast
3:53 AM 57.0 °F 55.0 °F 93% 29.84 in 10.0 mi Calm Calm - N/A   Overcast
4:53 AM 57.0 °F 55.0 °F 93% 29.83 in 10.0 mi ESE 4.6 mph - 0.00 in   Overcast
5:36 AM 57.2 °F 55.4 °F 94% 29.85 in 4.0 mi East 3.5 mph - 0.00 in Rain Light Rain
5:53 AM 57.0 °F 55.9 °F 96% 29.86 in 6.0 mi ESE 5.8 mph - 0.01 in   Overcast
6:01 AM 57.2 °F 55.4 °F 94% 29.86 in 7.0 mi ESE 6.9 mph - N/A   Overcast
6:21 AM 57.2 °F 55.4 °F 94% 29.88 in 2.0 mi ESE 5.8 mph - 0.00 in Rain Light Rain
6:34 AM 57.2 °F 55.4 °F 94% 29.88 in 3.0 mi SE 4.6 mph - 0.00 in Rain Light Rain
6:53 AM 57.0 °F 55.9 °F 96% 29.88 in 4.0 mi ESE 4.6 mph - 0.00 in Rain Light Rain
7:00 AM 57.2 °F 55.4 °F 94% 29.88 in 2.5 mi ESE 4.6 mph - 0.00 in Rain Light Rain
7:22 AM 57.2 °F 55.4 °F 94% 29.89 in 3.0 mi ESE 6.9 mph - 0.01 in   Overcast
7:53 AM 57.0 °F 55.9 °F 96% 29.90 in 8.0 mi ESE 5.8 mph - 0.01 in   Overcast
8:36 AM 57.2 °F 55.4 °F 94% 29.90 in 8.0 mi ESE 5.8 mph - N/A   Overcast
8:53 AM 57.9 °F 55.9 °F 93% 29.91 in 10.0 mi ESE 6.9 mph - N/A   Overcast
9:53 AM 60.1 °F 57.0 °F 90% 29.89 in 10.0 mi East 6.9 mph - N/A   Overcast
10:25 AM 60.8 °F 57.2 °F 88% 29.91 in 10.0 mi East 6.9 mph - N/A   Overcast
10:38 AM 60.8 °F 57.2 °F 88% 29.91 in 10.0 mi East 5.8 mph - N/A   Overcast
10:53 AM 60.1 °F 57.0 °F 90% 29.91 in 10.0 mi East 5.8 mph - N/A   Overcast
11:13 AM 60.8 °F 55.4 °F 82% 29.91 in 10.0 mi East 8.1 mph - N/A   Overcast
11:53 AM 62.1 °F 57.0 °F 84% 29.89 in 10.0 mi NE 8.1 mph - N/A   Overcast
12:27 PM 59.0 °F 57.2 °F 94% 29.91 in 1.5 mi East 6.9 mph - N/A Rain Light Rain
12:35 PM 60.8 °F 57.2 °F 88% 29.91 in 2.0 mi East 3.5 mph - 0.01 in Rain Light Rain
12:40 PM 60.8 °F 57.2 °F 88% 29.91 in 5.0 mi East 10.4 mph - 0.01 in Rain Light Rain
12:53 PM 60.1 °F 57.9 °F 93% 29.89 in 6.0 mi ENE 5.8 mph - 0.02 in Rain Light Rain
12:58 PM 60.8 °F 57.2 °F 88% 29.90 in 7.0 mi ENE 5.8 mph - 0.00 in Rain Light Rain
1:17 PM 60.8 °F 57.2 °F 88% 29.89 in 6.0 mi ENE 5.8 mph - 0.02 in Rain Rain
1:53 PM 59.0 °F 57.0 °F 93% 29.88 in 4.0 mi NNE 5.8 mph - 0.08 in Rain Rain
2:19 PM 59.0 °F 57.2 °F 94% 29.87 in 10.0 mi NNE 6.9 mph - 0.03 in Rain Light Rain
2:53 PM 59.0 °F 57.9 °F 96% 29.85 in 4.0 mi North 9.2 mph - 0.07 in Rain Rain
3:53 PM 61.0 °F 59.0 °F 93% 29.81 in 8.0 mi NE 11.5 mph - 0.08 in Rain Light Rain
3:59 PM 60.8 °F 59.0 °F 94% 29.82 in 6.0 mi NE 13.8 mph - 0.01 in Rain Rain
4:25 PM 62.6 °F 59.0 °F 88% 29.80 in 9.0 mi ENE 16.1 mph - 0.03 in Rain Light Rain
4:45 PM 62.6 °F 59.0 °F 88% 29.80 in 10.0 mi East 20.7 mph - 0.04 in Rain Light Rain
4:53 PM 62.1 °F 59.0 °F 90% 29.78 in 10.0 mi East 19.6 mph 29.9 mph 0.04 in Rain Light Rain
5:02 PM 62.6 °F 59.0 °F 88% 29.79 in 10.0 mi East 21.9 mph 28.8 mph 0.00 in Rain Light Rain
5:53 PM 62.1 °F 57.9 °F 86% 29.77 in 10.0 mi ESE 18.4 mph 27.6 mph 0.00 in   Overcast
6:25 PM 62.6 °F 57.2 °F 82% 29.78 in 10.0 mi East 18.4 mph 26.5 mph 0.00 in Rain Light Rain
6:53 PM 62.1 °F 57.9 °F 86% 29.78 in 10.0 mi East 17.3 mph 26.5 mph 0.00 in   Overcast
7:15 PM 62.6 °F 57.2 °F 82% 29.78 in 10.0 mi East 17.3 mph 24.2 mph N/A   Overcast
7:53 PM 61.0 °F 57.0 °F 87% 29.78 in 10.0 mi East 16.1 mph - N/A   Overcast
8:53 PM 61.0 °F 57.9 °F 90% 29.77 in 8.0 mi East 18.4 mph - 0.04 in Rain Light Rain
9:50 PM 60.8 °F 57.2 °F 88% 29.79 in 9.0 mi East 25.3 mph 32.2 mph 0.00 in   Overcast
9:53 PM 61.0 °F 57.0 °F 87% 29.78 in 9.0 mi East 20.7 mph 32.2 mph 0.00 in Rain Light Rain
10:53 PM 61.0 °F 57.9 °F 90% 29.80 in 6.0 mi SE 17.3 mph 29.9 mph 0.01 in Rain Light Rain
11:04 PM 55.4 °F 53.6 °F 94% 29.82 in 7.0 mi SSW 18.4 mph - 0.02 in Rain Light Rain
11:53 PM 54.0 °F 52.0 °F 93% 29.82 in 10.0 mi SSW 5.8 mph - 0.03 in Rain Light Rain